ONEWEB-0020 (45133 NORAD) Tracking and Keplerian Element Data

This shows tracking and keplerian element data for the satellite.

Feedback or suggestion? Click here.




ElementValue
Catalog45133
NameONEWEB-0020
Epoch Orbit855
Epoch Day93.90670076
Epoch Year2020
RAAN145.3521
Inclination87.5551
Eccentricity0.0027372
Argument of Perigee89.6513
Mean Anonmoly270.7854
Mean Motion14.93484935
Decay Rate-0.00492833
L11 45133U 20008C 20093.90670076 -.00492833 00000-0 -49341-1 0 9998
L22 45133 87.5551 145.3521 0027372 89.6513 270.7854 14.93484935 8554

Live tracking and technical data element details for ONEWEB-0020 (NORAD 45133). ONEWEB-0020 can be tracked NOW for your location showing map with azimuth and elevation plus other details from your city location.

Track the satellite on the map from your city or location and see movement details for azimuth, elevation, latitude, longitude, range, height, and movement on the map or in text.







IsCatalogInMostPopularTable: catalog: 45133, numindb: 12
Update: records affected: 1



GetName: 45133 ONEWEB-0020

Hit Count: updated at: Fri, 03 Apr 2020 23:18:57 GMT